Regional Weather Roundup
Issued by NWS

Home | Current Version | Previous Version | Graphics & Text | Print | Product List | Glossary On
Versions: 1 2 3 4 5 6 7 8 9 10 11 12 13 14 15 16 17 18 19 20 21 22 23 24 25 26 27 28 29 30 31 32 33 34 35 36 37 38 39 40 41 42 43 44 45 46 47 48 49 50
000
ASUS43 KFSD 250002
RWRSD

WEATHER ROUNDUP FOR SOUTH DAKOTA
NATIONAL WEATHER SERVICE SIOUX FALLS SD
700 PM CDT THU APR 24 2014

NOTE: "FAIR" INDICATES FEW OR NO CLOUDS BELOW 12,000 FEET WITH NO
SIGNIFICANT WEATHER AND/OR OBSTRUCTIONS TO VISIBILITY.


SDZ001>005-009-010-012>017-250100-
NORTHWEST AND NORTH CENTRAL SOUTH DAKOTA

CITY           SKY/WX    TMP DP  RH WIND       PRES   REMARKS
BUFFALO          N/A     57  23  26 NW16      29.70S
FAITH            N/A     60  23  24 NW17G29   29.74F
MOBRIDGE       MOSUNNY   62  17  17 NW15G28   29.68S
$$

SDZ012>016-024>037-041>051-057-063-072>074-250100-
SOUTHWEST AND SOUTH CENTRAL SOUTH DAKOTA

CITY           SKY/WX    TMP DP  RH WIND       PRES   REMARKS
RAPID CTY ARPT PTSUNNY   58  29  33 NE6       29.77R
PIERRE         SUNNY     63  21  20 NW20      29.72S
CUSTER         PTSUNNY   55  14  19 W10G18    29.81S
PHILIP         MOSUNNY   63  27  25 NW16      29.76R
PINE RIDGE     MOSUNNY   65  18  16 W13G21    29.77S
WINNER         FAIR      67  21  17 NW24G31   29.75S
$$

SDZ004>011-016>023-039-040-250100-
NORTHEAST SOUTH DAKOTA

CITY           SKY/WX    TMP DP  RH WIND       PRES   REMARKS
ABERDEEN       SUNNY     62  20  19 NW21      29.68R
WATERTOWN      MOSUNNY   54  41  61 NE6       29.68R
SISSETON         N/A     50  43  77 E7        29.69R
$$

SDZ017-020-022-023-036>040-048>070-250100-
SOUTHEAST SOUTH DAKOTA

CITY           SKY/WX    TMP DP  RH WIND       PRES   REMARKS
SIOUX FALLS    MOSUNNY   64  30  27 NW20G26   29.70R
HURON          SUNNY     65  17  15 NW25G31   29.69S
CHAMBERLAIN      N/A     65  22  19 N18G25    29.74R
MITCHELL       SUNNY     67  20  16 NW22G32   29.71R
YANKTON        SUNNY     66  27  22 NW21G26   29.72S
$$

ABBREVIATIONS USED IN REMARKS
   TC - TEMPERATURE IN CELSIUS
  WCI - WIND CHILL INDEX
   HX - HEAT INDEX
  VSB - VISIBILITY




USA.gov is the U.S. government's official web portal to all federal, state and local government web resources and services.